{"data":{"norad_id":58960,"epoch":"2026-05-25T00:31:34.644864Z","epoch_age_seconds":79905,"freshness":"FRESH","line1":"1 58960U 24028F   26145.02192876  .00003557  00000+0  33119-3 0  9996","line2":"2 58960  39.9890 251.1871 0010118  27.8863 332.2468 14.95108696103717","mean_motion":14.95108696,"eccentricity":0.0010118,"inclination_deg":39.989,"raan_deg":251.1871,"arg_perigee_deg":27.8863,"mean_anomaly_deg":332.2468,"bstar":0.00033119,"rev_number":10371,"period_min":96.314067589371,"perigee_km":574.99308690139,"apogee_km":589.07769174843,"semimajor_km":6960.1723893249,"source":"CELESTRAK","updated_at":"2026-05-25T13:38:01.088826Z"}}